Last server records
Pro Nub

Map info

water_jump_v2
water_jump_v2 ( Cosy-Climbing) 19.01.2011
Cosy-Climbing record BloLy - 01:18.49

KZ-Rush record seniug - 01:28.77

Mapper  Candy15

Pro-record No record

Nub-record SlasHeR - 01:48.59 (23 cp / 2 gc)

Difficulty Average

Length Short

Download map water_jump_v2 (872,38 KB)
Installation instructions

Map Installation Guide

  1. Download map archive water_jump_v2.zip
  2. Unzip the archive in any convenient folder
  3. Open cstrike folder, which is located in the place of Counter-Strike installation. In case of Steam version the path looks like Steam\steamapps\common\Half-Life
  4. Copy all files from the folder, where you unzipped the archive, to cstrike folder according to the following table (if your system asks about replacing files, choose Copy and Replace):
maps/water_jump_v2.bsp>>maps/water_jump_v2.bsp
We don't know about shortcuts on this map

Community records

# Player Time Difference Date  
1 seniug 01:28.77   14.11.20
# Player Time Date Weapon CP GC
1 SlasHeR 01:48.59 22.06.19 23 2
2 Chichin 01:50.60 27.02.19 29 6
3 enotik_poloskyn! 01:55.93 22.06.18 25 2
4 who 01:57.29 02.06.20 20 11
5 snegg 02:16.97 21.06.18 31 4
6 Apache 02:39.64 29.08.20 34 14
7 modx 02:40.65 27.02.19 23 14
8 ScrAw 02:52.56 04.07.18 28 13
9 ARINAMYLOVE 03:00.26 04.06.18 27 21
10 Neiro 03:05.20 04.06.18 32 22
11 Hellow 03:22.22 04.07.18 52 28
12 trololo 03:39.89 28.10.19 38 15
13 rck 03:49.32 28.10.19 33 26
14 You 03:50.35 16.09.20 37 28
15 mvxtip 04:19.94 07.03.19 110 36
16 EnoT 04:57.63 25.05.20 29 49
17 EnTaro 04:57.99 22.06.19 41 45
18 lampoviyASd_kzrandom 04:59.07 13.04.20 64 57
19 ~HR~7fAta 05:04.30 27.02.19 41 42
20 zambonya 05:26.41 28.10.19 43 45
21 eul5 05:27.10 07.03.19 44 49
22 Masljonok 06:05.26 12.05.19 62 58
23 vv 06:24.22 28.10.19 46 60
24 SShooolD 07:03.48 15.11.18 42 65
25 Mou_rocnoguH 07:11.49 22.06.18 35 83
26 Jus7_M3 08:06.53 27.02.19 49 75
27 I_love_life 08:54.36 07.03.19 86 133
28 Peanut 09:21.06 22.06.19 28 115
29 space 09:52.80 04.06.18 37 98
30 丿潇洒 17:04.68 22.06.19 40 183
31 Vatnyy 18:22.75 22.06.19 99 312

Other maps with same difficulty

Other maps from Cosy-Climbing

Other maps from mapper Candy15